GRL226 BGSF-BGGH

Flight info

Callsign GRL226
Flight time 0h 39m
Altitude 20000
Route GILPO1B GILPO DCT BAKUG DCT GETDA
Aircraft DH8B/M-SDFGR/S

Departure

Time 2026-04-29 14:46
Airport Kangerlussuaq International Airport (BGSF)

Arrival

Time 2026-04-29 15:25
Airport Nuuk International Airport (BGGH)
Time Latitude Longitude Altitude Speed Heading
2026-04-29 14:37 67.01234 -50.69580 154 ft 0 kts 302°
2026-04-29 14:43 67.01266 -50.69678 154 ft 4 kts 352°
2026-04-29 14:43 67.01275 -50.69630 154 ft 9 kts 79°
2026-04-29 14:44 67.01357 -50.69324 153 ft 19 kts 36°
2026-04-29 14:44 67.01536 -50.69010 160 ft 33 kts 22°
2026-04-29 14:44 67.01643 -50.69185 165 ft 17 kts 252°
2026-04-29 14:44 67.01631 -50.69247 165 ft 0 kts 242°
2026-04-29 14:45 67.01624 -50.69276 165 ft 15 kts 241°
2026-04-29 14:45 67.01414 -50.70271 160 ft 112 kts 241°
2026-04-29 14:45 67.00938 -50.72519 240 ft 167 kts 242°
2026-04-29 14:46 67.00403 -50.75315 777 ft 179 kts 246°
2026-04-29 14:46 66.99939 -50.78294 1479 ft 180 kts 253°
2026-04-29 14:46 66.99511 -50.81199 2595 ft 173 kts 234°
2026-04-29 14:46 66.98529 -50.82794 3449 ft 170 kts 185°
2026-04-29 14:47 66.97432 -50.82042 4353 ft 167 kts 148°
2026-04-29 14:47 66.96444 -50.80434 5255 ft 169 kts 149°
2026-04-29 14:47 66.95426 -50.78916 6130 ft 171 kts 150°
2026-04-29 14:47 66.94390 -50.77363 6983 ft 175 kts 150°
2026-04-29 14:48 66.93333 -50.75786 7775 ft 181 kts 152°
2026-04-29 14:48 66.92118 -50.75007 8604 ft 185 kts 188°
2026-04-29 14:48 66.90883 -50.75958 9469 ft 188 kts 204°
2026-04-29 14:48 66.89629 -50.77036 10330 ft 192 kts 198°
2026-04-29 14:49 66.88316 -50.77847 11159 ft 196 kts 197°
2026-04-29 14:49 66.86991 -50.78766 12021 ft 199 kts 199°
2026-04-29 14:49 66.85646 -50.79719 12905 ft 203 kts 198°
2026-04-29 14:49 66.84268 -50.80613 13796 ft 206 kts 198°
2026-04-29 14:50 66.82874 -50.81595 14615 ft 209 kts 199°
2026-04-29 14:50 66.81479 -50.82527 15465 ft 211 kts 198°
2026-04-29 14:50 66.80052 -50.83495 16328 ft 214 kts 199°
2026-04-29 14:50 66.78605 -50.84495 17233 ft 216 kts 199°
2026-04-29 14:51 66.77139 -50.85466 18150 ft 219 kts 199°
2026-04-29 14:51 66.75663 -50.86481 18992 ft 221 kts 200°
2026-04-29 14:51 66.74162 -50.87488 19770 ft 227 kts 200°
2026-04-29 14:51 66.72573 -50.88580 20045 ft 252 kts 201°
2026-04-29 14:52 66.70800 -50.89842 20061 ft 277 kts 200°
2026-04-29 14:52 66.68906 -50.91097 20103 ft 292 kts 199°
2026-04-29 14:52 66.66905 -50.92434 20161 ft 302 kts 199°
2026-04-29 14:52 66.64859 -50.93838 20229 ft 308 kts 199°
2026-04-29 14:53 66.62768 -50.95257 20272 ft 313 kts 199°
2026-04-29 14:53 66.60656 -50.96686 20299 ft 316 kts 199°
2026-04-29 14:53 66.58524 -50.98136 20320 ft 319 kts 199°
2026-04-29 14:53 66.56376 -50.99600 20316 ft 321 kts 199°
2026-04-29 14:54 66.54211 -51.01050 20298 ft 323 kts 199°
2026-04-29 14:54 66.52036 -51.02482 20272 ft 325 kts 199°
2026-04-29 14:54 66.49847 -51.03928 20232 ft 326 kts 199°
2026-04-29 14:54 66.47680 -51.05362 20177 ft 327 kts 199°
2026-04-29 14:55 66.45435 -51.06388 20085 ft 331 kts 188°
2026-04-29 14:55 66.43125 -51.06624 20032 ft 332 kts 186°
2026-04-29 14:55 66.40825 -51.06937 20040 ft 330 kts 189°
2026-04-29 14:55 66.38549 -51.07525 20049 ft 328 kts 191°
2026-04-29 14:56 66.36278 -51.08122 20045 ft 328 kts 189°
2026-04-29 14:56 66.34005 -51.08634 20045 ft 328 kts 189°
2026-04-29 14:56 66.31732 -51.09090 20044 ft 328 kts 189°
2026-04-29 14:56 66.29461 -51.09581 20041 ft 327 kts 189°
2026-04-29 14:57 66.27192 -51.10092 20031 ft 328 kts 189°
2026-04-29 14:57 66.24957 -51.10579 20034 ft 327 kts 189°
2026-04-29 14:57 66.22683 -51.11067 20032 ft 328 kts 189°
2026-04-29 14:57 66.20408 -51.11558 20033 ft 327 kts 189°
2026-04-29 14:58 66.18147 -51.12047 20031 ft 327 kts 189°
2026-04-29 14:58 66.15881 -51.12542 20047 ft 327 kts 189°
2026-04-29 14:58 66.13613 -51.13027 20046 ft 327 kts 189°
2026-04-29 14:58 66.11348 -51.13514 20042 ft 327 kts 189°
2026-04-29 14:59 66.09111 -51.13996 20044 ft 327 kts 189°
2026-04-29 14:59 66.06842 -51.14481 20040 ft 327 kts 189°
2026-04-29 14:59 66.04574 -51.14946 20035 ft 327 kts 188°
2026-04-29 14:59 66.02305 -51.15351 20033 ft 327 kts 188°
2026-04-29 15:00 66.00031 -51.15775 20016 ft 327 kts 188°
2026-04-29 15:00 65.97773 -51.16224 20021 ft 326 kts 188°
2026-04-29 15:00 65.95504 -51.16656 20022 ft 326 kts 188°
2026-04-29 15:00 65.93249 -51.17077 20023 ft 326 kts 189°
2026-04-29 15:01 65.90984 -51.17510 20026 ft 326 kts 189°
2026-04-29 15:01 65.88724 -51.17945 20017 ft 326 kts 189°
2026-04-29 15:01 65.86497 -51.18365 20022 ft 326 kts 188°
2026-04-29 15:01 65.84240 -51.18789 20012 ft 326 kts 189°
2026-04-29 15:02 65.81980 -51.19218 20012 ft 326 kts 189°
2026-04-29 15:02 65.79719 -51.19644 20011 ft 326 kts 189°
2026-04-29 15:02 65.77448 -51.20073 20008 ft 326 kts 189°
2026-04-29 15:02 65.75190 -51.20495 20014 ft 326 kts 188°
2026-04-29 15:03 65.72922 -51.20915 20016 ft 326 kts 189°
2026-04-29 15:03 65.70690 -51.21343 20013 ft 326 kts 189°
2026-04-29 15:03 65.68430 -51.21764 20006 ft 326 kts 188°
2026-04-29 15:03 65.66163 -51.22180 20009 ft 327 kts 188°
2026-04-29 15:04 65.63893 -51.22607 20009 ft 326 kts 189°
2026-04-29 15:04 65.61630 -51.23031 19992 ft 326 kts 188°
2026-04-29 15:04 65.59369 -51.23447 20007 ft 325 kts 188°
2026-04-29 15:04 65.57111 -51.23865 20007 ft 325 kts 188°
2026-04-29 15:05 65.54858 -51.24280 20005 ft 325 kts 188°
2026-04-29 15:05 65.52630 -51.24697 20000 ft 325 kts 188°
2026-04-29 15:05 65.50381 -51.25114 19995 ft 325 kts 188°
2026-04-29 15:05 65.48118 -51.25526 19995 ft 325 kts 188°
2026-04-29 15:06 65.45862 -51.25938 19997 ft 325 kts 188°
2026-04-29 15:06 65.43609 -51.26353 19996 ft 325 kts 188°
2026-04-29 15:06 65.41358 -51.26768 20000 ft 324 kts 188°
2026-04-29 15:06 65.39114 -51.27173 19996 ft 324 kts 188°
2026-04-29 15:07 65.36857 -51.27581 19992 ft 324 kts 189°
2026-04-29 15:07 65.34608 -51.27996 19988 ft 325 kts 189°
2026-04-29 15:07 65.32356 -51.28407 19990 ft 325 kts 189°
2026-04-29 15:07 65.30130 -51.28810 19988 ft 325 kts 189°
2026-04-29 15:08 65.27881 -51.29220 19988 ft 325 kts 189°
2026-04-29 15:08 65.25621 -51.29627 19983 ft 325 kts 189°
2026-04-29 15:08 65.23374 -51.30032 19955 ft 325 kts 188°
2026-04-29 15:08 65.21117 -51.30441 19972 ft 324 kts 188°
2026-04-29 15:09 65.18873 -51.30844 19971 ft 324 kts 188°
2026-04-29 15:09 65.16625 -51.31246 19973 ft 324 kts 188°
2026-04-29 15:09 65.14381 -51.31648 19973 ft 323 kts 188°
2026-04-29 15:09 65.12166 -51.32044 19971 ft 323 kts 188°
2026-04-29 15:10 65.09928 -51.32443 19973 ft 323 kts 188°
2026-04-29 15:10 65.07684 -51.32845 19966 ft 323 kts 189°
2026-04-29 15:10 65.05437 -51.33249 19962 ft 324 kts 188°
2026-04-29 15:10 65.03197 -51.33644 19956 ft 324 kts 188°
2026-04-29 15:11 65.00944 -51.34047 19953 ft 324 kts 189°
2026-04-29 15:11 64.98702 -51.34444 19954 ft 324 kts 188°
2026-04-29 15:11 64.96454 -51.34839 19952 ft 324 kts 188°
2026-04-29 15:11 64.94234 -51.35239 19855 ft 327 kts 189°
2026-04-29 15:12 64.91948 -51.35654 19605 ft 331 kts 188°
2026-04-29 15:12 64.89647 -51.36056 19356 ft 331 kts 188°
2026-04-29 15:12 64.87351 -51.36459 19111 ft 331 kts 188°
2026-04-29 15:12 64.85055 -51.36861 18859 ft 331 kts 189°
2026-04-29 15:13 64.82763 -51.37266 18601 ft 331 kts 189°
2026-04-29 15:13 64.80463 -51.37668 18368 ft 331 kts 189°
2026-04-29 15:13 64.78168 -51.38076 18093 ft 331 kts 189°
2026-04-29 15:13 64.75867 -51.38482 17787 ft 332 kts 189°
2026-04-29 15:14 64.73564 -51.38886 17494 ft 332 kts 189°
2026-04-29 15:14 64.71287 -51.39280 17201 ft 332 kts 188°
2026-04-29 15:14 64.68986 -51.39687 16753 ft 334 kts 189°
2026-04-29 15:14 64.66667 -51.40094 16228 ft 334 kts 188°
2026-04-29 15:15 64.64348 -51.40496 15718 ft 330 kts 188°
2026-04-29 15:15 64.62136 -51.40878 15195 ft 309 kts 188°
2026-04-29 15:15 64.60038 -51.41215 14665 ft 296 kts 188°
2026-04-29 15:15 64.58006 -51.41547 14129 ft 288 kts 188°
2026-04-29 15:16 64.56035 -51.41889 13558 ft 281 kts 188°
2026-04-29 15:16 64.54098 -51.42221 12961 ft 276 kts 188°
2026-04-29 15:16 64.52273 -51.43306 12400 ft 268 kts 205°
2026-04-29 15:16 64.50572 -51.44850 11831 ft 265 kts 203°
2026-04-29 15:17 64.48829 -51.46160 11269 ft 263 kts 199°
2026-04-29 15:17 64.47082 -51.47372 10717 ft 261 kts 200°
2026-04-29 15:17 64.45355 -51.48636 10188 ft 258 kts 200°
2026-04-29 15:17 64.43655 -51.49887 9606 ft 256 kts 200°
2026-04-29 15:18 64.41957 -51.51142 8956 ft 256 kts 200°
2026-04-29 15:18 64.40266 -51.52396 8318 ft 254 kts 199°
2026-04-29 15:18 64.38616 -51.53624 7708 ft 251 kts 200°
2026-04-29 15:18 64.36968 -51.54855 7103 ft 248 kts 199°
2026-04-29 15:19 64.35334 -51.56068 6505 ft 246 kts 198°
2026-04-29 15:19 64.33736 -51.57248 5869 ft 226 kts 198°
2026-04-29 15:19 64.32340 -51.58277 5198 ft 198 kts 197°
2026-04-29 15:19 64.31078 -51.59174 4484 ft 185 kts 197°
2026-04-29 15:20 64.29908 -51.60166 3934 ft 172 kts 206°
2026-04-29 15:20 64.28913 -51.61447 3572 ft 158 kts 211°
2026-04-29 15:20 64.28088 -51.63062 3088 ft 157 kts 227°
2026-04-29 15:20 64.27317 -51.65035 2769 ft 175 kts 226°
2026-04-29 15:21 64.26430 -51.66903 2701 ft 174 kts 211°
2026-04-29 15:21 64.25309 -51.68162 2392 ft 185 kts 204°
2026-04-29 15:21 64.24135 -51.69427 2180 ft 187 kts 204°
2026-04-29 15:21 64.22934 -51.70542 2037 ft 185 kts 201°
2026-04-29 15:22 64.21776 -51.71675 2069 ft 177 kts 202°
2026-04-29 15:22 64.20658 -51.72861 1888 ft 177 kts 206°
2026-04-29 15:22 64.19579 -51.74107 1831 ft 174 kts 207°
2026-04-29 15:22 64.18544 -51.75389 2261 ft 167 kts 207°
2026-04-29 15:23 64.17476 -51.76613 2454 ft 179 kts 198°
2026-04-29 15:23 64.16324 -51.76300 2691 ft 172 kts 147°
2026-04-29 15:23 64.15594 -51.74133 2186 ft 183 kts 116°
2026-04-29 15:23 64.15557 -51.71527 1832 ft 153 kts 55°
2026-04-29 15:24 64.16401 -51.70117 1039 ft 152 kts 26°
2026-04-29 15:24 64.17364 -51.69207 597 ft 145 kts 20°
2026-04-29 15:24 64.18282 -51.68531 302 ft 133 kts 19°
2026-04-29 15:24 64.19036 -51.67971 279 ft 57 kts 19°
2026-04-29 15:25 64.19111 -51.67841 278 ft 9 kts 121°
2026-04-29 15:25 64.19078 -51.67677 278 ft 11 kts 110°
2026-04-29 15:25 64.19021 -51.67602 278 ft 18 kts 205°
2026-04-29 15:25 64.18897 -51.67699 278 ft 20 kts 198°
2026-04-29 15:26 64.18764 -51.67798 278 ft 19 kts 199°
2026-04-29 15:26 64.18636 -51.67894 277 ft 20 kts 195°
2026-04-29 15:26 64.18510 -51.67980 277 ft 17 kts 198°
2026-04-29 15:26 64.18432 -51.68034 278 ft 7 kts 176°
2026-04-29 15:27 64.18404 -51.67980 278 ft 7 kts 94°
2026-04-29 15:27 64.18393 -51.67919 277 ft 3 kts 154°
2026-04-29 15:27 64.18379 -51.67912 278 ft 0 kts 224°